sat.trackr.live / text

‹ back to catalog

STARLINK-2515

NORAD 48323 · 2021-036AZ

PAYLOAD ACTIVE UNKNOWN

§ Identity

Operator
Country
US
Launch date
2021-04-29
Launch site
AFETR
Launch vehicle
Mass (kg)
RCS (m²)

Purposes: comms

External: N2YO · Heavens-Above · Gunter

§ Orbital elements

Epoch: 2026-05-25T03:42:27.402912Z

Period
94.01 min
Inclination
53.1596°
Eccentricity
0.0001250
Mean motion
15.31706473 rev/d
Perigee alt
469.9 km
Apogee alt
471.6 km
Semi-major
6,848.9 km
B*
4.5622e-5
RAAN
105.4025°
Arg perigee
81.9891°
Mean anomaly
278.1252°
Rev number
27,975

§ Raw data

STARLINK-25151 48323U 21036AZ  26145.15448383  .00001051  00000+0  45622-4 0  99952 48323  53.1596 105.4025 0001250  81.9891 278.1252 15.31706473279756

JSON: /api/v1/satellites/48323 · /tle

For live sub-satellite position, see the globe view (requires WebGL).

§ Visibility from observer

Set your observer location to see the next 7 days of passes ≥ 10°. The values pass through the URL so the page stays shareable.

No JS? Fill the form by hand. The geolocation button needs JavaScript.